Regional Weather Roundup
Issued by NWS Raleigh/Durham, NC

Home | Current Version | Previous Version | Text Only | Print | Product List | Glossary On
Versions: 1 2 3 4 5 6 7 8 9 10 11 12 13 14 15 16 17 18 19 20 21 22 23 24 25 26 27 28 29 30 31 32 33 34 35 36 37 38 39 40 41 42 43 44 45 46 47 48 49 50
000
ASUS42 KRAH 210110
RWRRAH
NORTH CAROLINA WEATHER ROUNDUP
NATIONAL WEATHER SERVICE RALEIGH NC
900 PM EDT FRI OCT 20 2017

NOTE: "FAIR" INDICATES FEW OR NO CLOUDS BELOW 12,000 FEET WITH NO
SIGNIFICANT WEATHER AND/OR OBSTRUCTIONS TO VISIBILITY.

NCZ001-053-055-056-065-067-210200-
WESTERN NORTH CAROLINA

CITY           SKY/WX    TMP DP  RH WIND       PRES   REMARKS
ASHEVILLE      CLEAR     58  48  69 CALM      30.28R
JEFFERSON      CLEAR     59  42  52 CALM      30.30S
HICKORY        CLEAR     61  47  59 CALM      30.23R
RUTHERFORDTON  CLEAR     58  50  75 CALM      30.25R
MOUNT AIRY     CLEAR     62  53  70 CALM      30.26R
BOONE          CLEAR     48  42  77 CALM      30.32S
$$

NCZ021-022-025-041-071-084-088-210200-
CENTRAL NORTH CAROLINA

CITY           SKY/WX    TMP DP  RH WIND       PRES   REMARKS
CHARLOTTE      PTCLDY    61  50  67 CALM      30.22R
GREENSBORO     CLEAR     62  51  67 CALM      30.23R
WINSTON-SALEM  CLEAR     62  51  67 CALM      30.24S
RALEIGH-DURHAM PTCLDY    61  54  77 CALM      30.23S
FORT BRAGG     CLEAR     61  53  75 CALM      30.20S
FAYETTEVILLE   CLEAR     67  52  58 CALM      30.21R
BURLINGTON     CLEAR     57  51  80 CALM      30.22S
LAURINBURG     CLEAR     60  54  80 NE3       30.21S
$$

NCZ011-015-027-028-043-044-047-080-103-210200-
NORTHEASTERN NORTH CAROLINA

CITY           SKY/WX    TMP DP  RH WIND       PRES   REMARKS
ROCKY MT-WILSO CLEAR     56  56 100 CALM      30.22S
GREENVILLE     CLEAR     57  55  94 CALM      30.23R
WASHINGTON     CLEAR     61  57  87 CALM      30.22R
ELIZABETH CITY CLEAR     60  57  89 CALM      30.22R
MANTEO         CLEAR    N/A N/A N/A CALM      30.22R
CAPE HATTERAS  CLEAR     60  58  92 NE3       30.21S
$$

NCZ078-087-090-091-093-098-101-210200-
SOUTHEASTERN NORTH CAROLINA

CITY           SKY/WX    TMP DP  RH WIND       PRES   REMARKS
LUMBERTON      CLEAR     55  53  93 CALM      30.20S
GOLDSBORO      CLEAR     59  53  80 CALM      30.20R HAZE
KINSTON        CLEAR     55  54  94 CALM      30.22S
KENANSVILLE    CLEAR     55  50  82 CALM      30.22R
NEW BERN       CLEAR     60  58  92 S3        30.23R
CHERRY POINT   NOT AVBL
BEAUFORT       CLEAR     59  56  89 CALM      30.21S
JACKSONVILLE   CLEAR     61  59  93 CALM      30.21R
WILMINGTON     CLEAR     60  56  86 CALM      30.21S
$$




USA.gov is the U.S. government's official web portal to all federal, state and local government web resources and services.